Cosmos 2208 Rocket - Orbit

View from above orbital plane
View from above orbital plane
View from above satellite
View from above satellite

Ground track
Ground track

The orbit data is extracted from the following two-line orbital elements,

1 22081U 92053B   13168.54578681  .00000086  00000-0  40693-4 0  3191
2 22081 074.0435 225.4109 0036136 194.4870 267.7878 14.32925975 89596
Epoch (UTC): 17 June 2013 13:05:55
Eccentricity: 0.0036136
inclination: 74.0435°
perigee height: 756 km
apogee height: 808 km
right ascension of ascending node: 225.4109°
argument of perigee: 194.4870°
revolutions per day: 14.32925975
mean anomaly at epoch: 267.7878°
orbit number at epoch: 8959

The dashed part of the orbit path shows where the satellite is in the earth's shadow,  

Developed and maintained by Chris Peat, Heavens-Above GmbH. Please read the updated FAQ before sending e-mail. Imprint. DLR